[[{"header":{"parameterUnit":"m.s-1","parameterCategory":1,"la1":30.2991,"la2":30.254,"lo1":-89.0895,"lo2":-89.0444,"dy":0.0017,"dx":0.0017,"nx":28,"ny":28,"refTime":"2023-08-04T09:00:00:Z","depth":0,"parameterNumber":2,"parameterNumberName":"U-component_of_WINDS"},"data":[0,0,0,0,0,0,0,0,0,0,0,0,0,0,0,0,0,0,0,0,0,0,0,0,0,0,0,0,0,0,0,0,0,0,0,0,0,0,0,0,0,0,0,0,0,0,0,0,0,0,0,0,0,0,0,0,0,0,2.4821,2.4822,0,2.4938,2.4939,2.4941,2.4924,2.4923,2.4921,2.4919,2.5037,2.5041,2.5046,0,0,0,0,0,0,0,0,0,0,0,0,0,2.4582,2.4586,2.4821,2.4823,2.4824,2.4938,2.4939,2.4941,2.4925,2.4922,2.492,2.4918,2.5035,2.5041,2.5047,0,0,0,0,0,0,0,0,0,0,0,0,0,2.4691,2.4588,2.4821,2.483,2.4832,2.4937,2.4939,2.4941,2.4925,2.4922,2.492,2.4917,2.5033,2.504,2.5047,2.5151,0,0,2.507,2.5073,0,0,0,0,0,0,0,0,2.4685,2.47,2.4827,2.4829,2.4832,2.4914,2.4898,2.5012,2.4926,2.489,2.4919,2.4915,2.4998,2.5008,2.5036,2.5157,2.5162,2.5071,2.5075,2.5078,2.5081,0,0,0,0,0,0,0,2.4677,2.4694,2.4867,2.4829,2.4832,2.4827,2.4839,2.492,2.4959,2.4893,2.4892,2.4906,2.4999,2.5029,2.5039,2.5163,2.5071,2.5077,2.5082,2.5085,2.5373,2.5376,0,0,0,0,0,0,2.4668,2.4688,2.4863,2.4871,2.475,2.4834,2.4848,2.489,2.4958,2.4965,2.4908,2.4905,2.5018,2.503,2.5043,2.5167,2.5078,2.5085,2.509,2.537,2.5374,2.5377,0,0,0,0,0,0,2.4662,2.4683,2.4859,2.4779,2.4801,2.4841,2.4889,2.4894,2.4925,2.497,2.4976,2.4932,2.5016,2.5032,2.5124,2.5171,2.5089,2.5095,2.5366,2.5371,2.5375,2.5417,0,0,0,0,0,0,2.4656,2.4682,2.4722,2.478,2.4806,2.4939,2.4892,2.4898,2.4938,2.4934,2.4994,2.5001,2.5015,2.5113,2.5131,2.518,2.5101,2.5362,2.5368,2.5374,2.5412,2.5423,2.5432,0,0,0,0,0,2.4647,2.4729,2.4724,2.4745,2.4857,2.4942,2.4956,2.4971,2.4942,2.4982,2.501,2.4999,2.5163,2.5123,2.5143,2.5194,2.5359,2.5366,2.5373,2.5407,2.5421,2.5432,0,0,0,0,0,0,2.4674,2.4737,2.4732,2.4835,2.4883,2.4939,2.499,2.4985,2.5042,2.5036,2.5052,2.5066,2.5158,2.5186,2.5139,2.5297,2.5257,2.5269,2.5276,2.5289,2.5299,2.5289,2.5107,0,0,0,0,0,2.4692,2.4757,2.4808,2.4894,2.4918,2.495,2.4987,2.4995,2.5045,2.5065,2.51,2.5149,2.5211,2.5252,2.5312,2.5416,2.5428,2.5462,2.5472,2.548,2.5489,2.5545,2.556,2.5401,2.5401,2.5401,0,0,2.473,2.4772,2.4812,2.49,2.4938,2.5003,2.4967,2.5038,2.5086,2.5076,2.5164,2.5192,2.5247,2.5345,2.539,2.537,2.5536,2.5489,2.5496,2.55,2.5554,2.5569,2.5582,2.5406,2.5405,2.5404,0,0,2.4832,2.4871,2.4946,2.4985,2.5044,2.5064,2.5082,2.5139,2.5157,2.5246,2.5239,2.5296,2.5404,2.5443,2.5477,2.5593,2.5584,2.5612,2.5665,2.5719,2.5732,2.5743,2.5782,2.5796,2.5622,2.5622,2.5622,0,2.4871,2.4969,2.4985,2.5057,2.5095,2.509,2.5165,2.5202,2.5277,2.5303,2.5281,2.5415,2.5452,2.5558,2.5586,2.5615,2.5635,2.5605,2.5729,2.574,2.5751,2.5788,2.5803,2.5625,2.5625,2.5624,2.5624,0,2.5013,2.5082,2.5136,2.5208,2.5253,2.5326,2.5352,2.5396,2.54,2.5422,2.5512,2.5556,2.5624,2.5651,2.5655,2.5757,2.5743,2.5725,2.5684,2.5768,2.5804,2.5819,2.5629,2.5628,2.5627,2.5627,0,0,2.5134,2.5215,2.5234,2.5266,2.533,2.5383,2.5456,2.5523,2.5559,2.5611,2.5671,2.5762,2.5745,2.5784,2.5793,2.584,2.5927,2.5816,2.5817,2.5833,2.604,2.6051,2.6068,2.5922,2.5925,2.5927,2.6034,0,2.524,2.5369,2.5385,2.5499,2.5561,2.5558,2.562,2.5666,2.5689,2.5745,2.5771,2.5834,2.5808,2.5831,2.5878,2.5906,2.5968,2.5899,2.5976,2.5979,2.596,2.6087,2.61,2.6199,2.6049,2.6051,2.6053,0,2.538,2.5436,2.5556,2.5611,2.5638,2.5694,2.5757,2.5811,2.5862,2.5875,2.5918,2.5921,2.5995,2.5953,2.6053,2.6006,2.6039,2.6057,2.6062,2.6067,2.6019,2.6094,2.6231,2.6245,2.6075,2.6074,2.6072,0,2.5453,2.5559,2.5644,2.5672,2.5739,2.5778,2.5808,2.5856,2.5895,2.595,2.5975,2.6037,2.6071,2.6118,2.6137,2.6105,2.6236,2.6196,2.6248,2.6247,2.6274,2.6271,2.6415,2.6299,2.6299,2.6298,2.6298,0,2.5568,2.5641,2.5677,2.573,2.5811,2.583,2.5909,2.5937,2.598,2.6037,2.6038,2.609,2.6113,2.617,2.6185,2.6265,2.6281,2.6292,2.6295,2.6291,2.6289,2.6311,2.6303,2.6302,2.6301,2.6301,2.63,0,2.5662,2.569,2.5782,2.5838,2.5854,2.5911,2.5958,2.6008,2.6031,2.6103,2.612,2.6156,2.6222,2.6247,2.6327,2.6337,2.6429,2.6427,2.6412,2.6412,2.6461,2.6455,2.6622,2.6644,2.6515,2.6516,2.6517,0,2.5733,2.5789,2.5851,2.5889,2.592,2.5982,2.6022,2.6043,2.6084,2.6146,2.6188,2.6254,2.6308,2.6413,2.6446,2.6507,2.6505,2.6559,2.6514,2.6508,2.6503,2.6498,2.6503,2.6567,2.6568,2.6569,2.657,0,2.5854,2.5865,2.5923,2.5986,2.6034,2.6084,2.6133,2.6164,2.6192,2.6238,2.6306,2.6347,2.643,2.6494,2.6557,2.6586,2.6582,2.6585,2.6599,2.6594,2.6582,2.6587,2.6432,2.658,2.6579,2.6578,2.6578,2.6577,2.5937,2.5986,2.6037,2.6102,2.6141,2.6186,2.6236,2.6265,2.6323,2.6391,2.64,2.6472,2.6521,2.6605,2.6637,2.6693,2.6678,2.67,2.6705,2.6709,2.6712,2.6575,2.6705,2.6704,2.6704,2.6704,2.6704,0,2.6056,2.6089,2.6149,2.6217,2.6267,2.6261,2.6315,2.6357,2.6421,2.6467,2.652,2.6597,2.666,2.6698,2.6761,2.6798,2.6798,2.6813,2.681,2.6816,2.6723,2.6703,2.6813,2.6813,2.6812,2.6812,2.6812,2.6812,2.6124,2.6206,2.6223,2.6325,2.6357,2.6429,2.6459,2.6501,2.6538,2.6624,2.6677,2.6702,2.6744,2.681,2.6867,2.6876,2.6898,2.6915,2.6922,2.6834,2.6823,2.6812,2.6793,2.692,2.692,2.701,2.7011,2.7012]},{"header":{"parameterUnit":"m.s-1","parameterCategory":1,"la1":30.2991,"la2":30.254,"lo1":-89.0895,"lo2":-89.0444,"dy":0.0017,"dx":0.0017,"nx":28,"ny":28,"refTime":"2023-08-04T09:00:00:Z","depth":0,"parameterNumber":3,"parameterNumberName":"V-component_of_WINDS"},"data":[0,0,0,0,0,0,0,0,0,0,0,0,0,0,0,0,0,0,0,0,0,0,0,0,0,0,0,0,0,0,0,0,0,0,0,0,0,0,0,0,0,0,0,0,0,0,0,0,0,0,0,0,0,0,0,0,0,0,5.6137,5.6137,0,5.6183,5.6183,5.6184,5.6163,5.6161,5.616,5.6159,5.6201,5.6203,5.6205,0,0,0,0,0,0,0,0,0,0,0,0,0,5.6022,5.6024,5.6136,5.6137,5.6138,5.6183,5.6183,5.6184,5.6163,5.6161,5.616,5.6159,5.62,5.6203,5.6205,0,0,0,0,0,0,0,0,0,0,0,0,0,5.607,5.6025,5.6136,5.6133,5.6133,5.6183,5.6184,5.6184,5.6163,5.6161,5.616,5.6158,5.6199,5.6202,5.6206,5.626,0,0,5.6216,5.6217,0,0,0,0,0,0,0,0,5.6067,5.6074,5.6133,5.6133,5.6133,5.6165,5.6158,5.621,5.6163,5.6151,5.6159,5.6157,5.619,5.6194,5.6206,5.6262,5.6264,5.6216,5.6218,5.6219,5.622,0,0,0,0,0,0,0,5.6064,5.6072,5.6155,5.6133,5.6134,5.6126,5.6131,5.6168,5.618,5.6152,5.6151,5.6157,5.619,5.6203,5.6207,5.6265,5.6216,5.6219,5.6221,5.6222,5.6364,5.6365,0,0,0,0,0,0,5.6062,5.607,5.6153,5.6156,5.6096,5.613,5.6135,5.6157,5.6179,5.6181,5.6158,5.6156,5.6198,5.6203,5.6208,5.6271,5.6219,5.6222,5.6224,5.6362,5.6364,5.6366,0,0,0,0,0,0,5.6059,5.6069,5.6151,5.6112,5.6122,5.6133,5.6158,5.6158,5.6172,5.6184,5.6185,5.617,5.6197,5.6204,5.6247,5.6272,5.6224,5.6227,5.636,5.6362,5.6365,5.6398,0,0,0,0,0,0,5.6056,5.6069,5.6092,5.6113,5.6125,5.6191,5.6159,5.6161,5.6178,5.6175,5.6195,5.6197,5.6196,5.6242,5.625,5.6276,5.6229,5.6357,5.6361,5.6364,5.6395,5.6402,5.6407,0,0,0,0,0,5.6052,5.6099,5.6093,5.6103,5.6154,5.6193,5.6199,5.6199,5.6181,5.6202,5.6209,5.6196,5.6269,5.6247,5.6256,5.6282,5.6356,5.636,5.6364,5.6392,5.64,5.6407,0,0,0,0,0,0,5.6078,5.6101,5.6095,5.6151,5.617,5.6189,5.6217,5.6209,5.6233,5.6228,5.6226,5.623,5.6274,5.6283,5.6259,5.6335,5.6309,5.6315,5.6327,5.6335,5.6341,5.6337,5.6232,0,0,0,0,0,5.609,5.6123,5.6141,5.6187,5.6198,5.6206,5.6223,5.6221,5.624,5.6248,5.6259,5.6276,5.6302,5.632,5.6345,5.6397,5.6399,5.6419,5.6425,5.6431,5.6435,5.6459,5.6468,5.6379,5.6379,5.6379,0,0,5.6116,5.6133,5.6153,5.6193,5.6208,5.6238,5.6213,5.6247,5.6269,5.6253,5.6294,5.6302,5.6321,5.6368,5.6389,5.6376,5.646,5.6436,5.644,5.6441,5.6464,5.6473,5.648,5.6382,5.6381,5.6381,0,0,5.6177,5.6195,5.6234,5.6249,5.6273,5.6277,5.6287,5.6307,5.6312,5.6354,5.6342,5.6367,5.6413,5.6426,5.6439,5.6503,5.6491,5.6511,5.6543,5.6567,5.6574,5.658,5.66,5.6607,5.6516,5.6516,5.6516,0,5.6204,5.6253,5.6255,5.6289,5.6305,5.6294,5.6332,5.6346,5.6376,5.6386,5.6372,5.6429,5.6441,5.6489,5.6504,5.6516,5.6524,5.6508,5.6574,5.658,5.6585,5.6604,5.6612,5.6518,5.6518,5.6518,5.6518,0,5.6284,5.6317,5.6345,5.6375,5.6395,5.6431,5.6436,5.6455,5.6452,5.6457,5.6497,5.6512,5.6538,5.655,5.6547,5.6597,5.6588,5.6574,5.6548,5.6596,5.6613,5.662,5.6521,5.6521,5.652,5.6519,0,0,5.6361,5.6392,5.6402,5.6414,5.6438,5.6462,5.6496,5.6524,5.6539,5.656,5.6586,5.6625,5.6611,5.6626,5.6624,5.6645,5.6691,5.6628,5.6628,5.6636,5.6743,5.6751,5.676,5.6684,5.6685,5.6687,5.674,0,5.6422,5.6483,5.6485,5.654,5.6569,5.6558,5.6587,5.6603,5.6609,5.6632,5.6638,5.6664,5.6646,5.6654,5.6675,5.6681,5.6711,5.6677,5.6705,5.6706,5.6698,5.6769,5.6779,5.6829,5.6747,5.6749,5.6749,0,5.65,5.6524,5.6582,5.66,5.6612,5.6638,5.6662,5.6685,5.6703,5.6705,5.6721,5.6715,5.6747,5.6721,5.6763,5.674,5.6751,5.6756,5.6757,5.6758,5.6729,5.6768,5.6845,5.6851,5.6761,5.676,5.6759,0,5.6546,5.6593,5.6633,5.6644,5.6667,5.6685,5.6695,5.6711,5.6727,5.6747,5.6756,5.678,5.6791,5.6808,5.6808,5.679,5.6849,5.6825,5.6849,5.6849,5.686,5.6859,5.6936,5.6873,5.6872,5.6872,5.6872,0,5.6612,5.6647,5.6654,5.6678,5.6716,5.6717,5.6754,5.6762,5.6776,5.68,5.6792,5.6814,5.6813,5.6835,5.6835,5.6868,5.6874,5.6874,5.6873,5.6873,5.6873,5.6879,5.6874,5.6874,5.6874,5.6873,5.6873,0,5.6669,5.6676,5.6718,5.6736,5.6741,5.6768,5.6782,5.6804,5.6809,5.6839,5.6846,5.6853,5.6877,5.6879,5.6908,5.6908,5.6947,5.6943,5.6941,5.6939,5.6963,5.6959,5.7044,5.7054,5.6987,5.6987,5.6988,0,5.6709,5.6736,5.6756,5.6772,5.6783,5.681,5.6825,5.6826,5.6843,5.6864,5.6882,5.6906,5.6926,5.6965,5.6971,5.6992,5.6988,5.7016,5.699,5.6989,5.6984,5.6982,5.6983,5.702,5.7021,5.7021,5.7022,0,5.6777,5.6779,5.6803,5.6827,5.6846,5.6866,5.6883,5.6896,5.6899,5.6917,5.6943,5.6958,5.6988,5.7011,5.7031,5.7039,5.703,5.703,5.7036,5.7035,5.7032,5.7031,5.6951,5.7028,5.7027,5.7027,5.7026,5.7026,5.6825,5.6847,5.6864,5.689,5.6904,5.692,5.6941,5.6949,5.6971,5.6995,5.6995,5.7022,5.7036,5.7063,5.7073,5.7093,5.7083,5.7093,5.7094,5.7096,5.7097,5.7031,5.7097,5.7097,5.7096,5.7096,5.7096,0,5.689,5.69,5.6925,5.695,5.6969,5.6962,5.6981,5.6997,5.7022,5.7037,5.7056,5.7084,5.7106,5.7114,5.7135,5.715,5.7146,5.7155,5.7152,5.7153,5.7106,5.7097,5.7157,5.7157,5.7157,5.7157,5.7157,5.7157,5.6926,5.6962,5.6965,5.7007,5.7017,5.7045,5.7056,5.707,5.7082,5.7114,5.7133,5.7139,5.715,5.7171,5.719,5.7192,5.7199,5.7209,5.7208,5.7163,5.7157,5.7151,5.7143,5.7211,5.7211,5.7253,5.7254,5.7254]}]]